Regional Weather Roundup
Issued by NWS

Home | Current Version | Previous Version | Text Only | Print | Product List | Glossary Off
Versions: 1 2 3 4 5 6 7 8 9 10 11 12 13 14 15 16 17 18 19 20 21 22 23 24 25 26 27 28 29 30 31 32 33 34 35 36 37 38 39 40 41 42 43 44 45 46 47 48 49 50

000
ASUS43 KOAX 280202
RWRNE

WEATHER ROUNDUP FOR NEBRASKA
NATIONAL WEATHER SERVICE OMAHA NE
800 PM CST SAT DEC 27 2014

NOTES: SATELLITE DATA IS BEING USED TO AUGMENT CLOUD COVER ABOVE
       12000 FEET.
       "FAIR" INDICATES FEW OR NO CLOUDS BELOW 12,000 FEET WITH NO
       SIGNIFICANT WEATHER AND/OR OBSTRUCTIONS TO VISIBILITY.

  * THESE STATIONS DO NOT REPORT WEATHER SUCH AS RAIN...SNOW OR FOG.

NEZ001>004-019>022-054>056-280300-
NEBRASKA PANHANDLE

CITY           SKY/WX    TMP DP  RH WIND       PRES   REMARKS
SCOTTSBLUFF    PTCLDY     3  -1  83 CALM      30.10R
ALLIANCE       PTCLDY    -1  -5  82 W9        30.07F WCI -16
CHADRON        CLEAR      7   3  84 SW9       30.08S WCI  -7
KIMBALL        MOCLDY     7   1  75 W13       30.06S WCI  -9
SIDNEY         MOCLDY     8   0  69 NW12      30.11R WCI  -7
$$

NEZ057>060-069>072-079>082-280300-
SOUTHWEST NEBRASKA

CITY           SKY/WX    TMP DP  RH WIND       PRES   REMARKS
NORTH PLATTE   PTCLDY    11   7  84 W7        30.16S WCI   0
IMPERIAL       PTCLDY    13   6  74 W8        30.16S WCI   2
LEXINGTON      CLEAR     12  10  90 W6        30.18S WCI   3
MCCOOK         PTCLDY    13  10  88 SW8       30.18F WCI   2
OGALLALA       PTCLDY     5   2  88 SW3       30.15S
$$

NEZ005>010-023>029-035>040-094-280300-
NORTH CENTRAL NEBRASKA

CITY           SKY/WX    TMP DP  RH WIND       PRES   REMARKS
VALENTINE      CLEAR     12   6  77 W9        30.09S WCI   0
AINSWORTH      CLEAR     13   8  81 W9        30.10S WCI   1
BROKEN BOW     CLEAR     15   9  76 CALM      30.14F
O`NEILL        CLEAR      8   7  95 S7        30.13F WCI  -3
ORD            CLEAR      9   7  92 S5        30.15F WCI   1
$$

NEZ041-046>049-061>064-073>077-083>087-280300-
SOUTH CENTRAL NEBRASKA

CITY           SKY/WX    TMP DP  RH WIND       PRES   REMARKS
GRAND ISLAND     N/A     14  10  84 SW8       30.21F WCI   3
AURORA         CLEAR     15  11  85 SW8       30.20S WCI   4
HASTINGS       CLEAR     16  11  80 SW7       30.20F WCI   6
HEBRON         CLEAR     17  13  81 W5        30.25S WCI  10
HOLDREGE       CLEAR     17  12  82 S6        30.18F WCI   9
KEARNEY *      CLEAR     14   9  79 S7        30.19F WCI   4
YORK           CLEAR     14  10  85 SW8       30.21F WCI   3
$$

NEZ011>018-030>034-042>045-280300-
NORTHEAST NEBRASKA

CITY           SKY/WX    TMP DP  RH WIND       PRES   REMARKS
NORFOLK        CLEAR     10   6  84 CALM      30.18F
ALBION         CLEAR     12   8  85 CALM      30.18F
BLAIR          CLEAR     18  14  82 W3        30.22S
COLUMBUS *     CLEAR     12   7  79 CALM      30.22F
FREMONT        CLEAR     17  15  91 CALM      30.22F
TEKAMAH        CLEAR     16  11  80 S3        30.24S
WAYNE          CLEAR      7   4  88 SW3       30.19F
$$

NEZ050>053-065>068-078-088>093-280300-
SOUTHEAST NEBRASKA

CITY           SKY/WX    TMP DP  RH WIND       PRES   REMARKS
LINCOLN        CLEAR     20  15  81 CALM      30.26S
OMAHA EPPLEY   CLEAR     21  16  81 CALM      30.26S
BEATRICE       CLEAR     18  14  83 CALM      30.25S
FALLS CITY     CLEAR     24  18  77 W6        30.26S WCI  17
NEBRASKA CITY  CLEAR     21  15  76 NW5       30.25S WCI  15
PLATTSMOUTH    CLEAR     19  14  81 SW5       30.24S WCI  12
$$

NEZ044-045-051>053-067-280300-
OMAHA AREA

CITY           SKY/WX    TMP DP  RH WIND       PRES   REMARKS
OMAHA EPPLEY   CLEAR     21  16  81 CALM      30.26S
BLAIR          CLEAR     18  14  82 W3        30.22S
FREMONT        CLEAR     17  15  91 CALM      30.22F
MILLARD        CLEAR     20  16  85 CALM      30.25S
OFFUTT AFB     CLEAR     18  13  82 SW2       30.24S
PLATTSMOUTH    CLEAR     19  14  81 SW5       30.24S WCI  12
WAHOO          FAIR      19  14  82 SW5       30.23F WCI  12
$$


USA.gov is the U.S. government's official web portal to all federal, state and local government web resources and services.